Flag for U.S.A. Weather past 2 weeks in Miami, Florida, U.S.A.

Now
76 °F

Passing clouds.


Feels Like: 75 °F
Forecast: 79 / 87 °F
Wind: No wind

Location: Miami International Airport

Current Time: Jul 11, 2014 at 8:00:32 AM

Latest Report: Jul 11, 2014 at 6:53 AM


Visibility: 10 mi

Pressure: 30.09 "Hg

Humidity: 97%

Dew point: 75 °F

Location of MiamiLocation

Historic Weather in Miami — Graph

°F

Miami temperature yesterday

Maximum temperature yesterday: 87 °F (at 1:53 PM)
Minimum temperature yesterday: 77 °F (at 5:53 AM)
Average temperature yesterday: 81 °F

Past Weeks' High & Low Weather Summary

 TemperatureHumidityPressure
High93 °F (Jun 29, 12:53 PM)97% (Jul 11, 6:53 AM)30.15 "Hg (Jul 11, 6:53 AM)
Low73 °F (Jun 29, 6:59 PM)47% (Jun 29, 12:53 PM)29.86 "Hg (Jul 1, 6:53 PM)
Average82 °F76%30.06 "Hg
* Reported Jun 26 6:53 AM — Jul 11 6:53 AM, Miami, Weather by CustomWeather, © 2014

Note: Actual official high and low records may vary slightly from our data, if they occured in-between our weather recording intervals... More about our weather records

Advertising

Miami weather history for previous 24 hours

 ConditionsComfort  
Time TempWeatherWind HumidityBarometerVisibility
6:53 AM
Jul 11
76 °FPassing clouds.No wind97%30.09 "Hg10 mi
5:53 AM75 °FPassing clouds.No wind96%30.09 "Hg10 mi
4:53 AM75 °FPartly cloudy.No wind94%30.08 "Hg10 mi
3:53 AM75 °FRain. Fog.5 mph94%30.08 "Hg4 mi
2:53 AM78 °FLight rain. Partly cloudy.No wind87%30.08 "Hg7 mi
1:53 AM78 °FPassing clouds.5 mph87%30.09 "Hg10 mi
12:53 AM77 °FPassing clouds.No wind90%30.11 "Hg10 mi
11:53 PM
Jul 10
79 °FPassing clouds.No wind82%30.12 "Hg10 mi
10:53 PM79 °FPassing clouds.3 mph82%30.12 "Hg10 mi
9:53 PM80 °FPartly cloudy.3 mph76%30.11 "Hg10 mi
8:53 PM80 °FBroken clouds.3 mph76%30.10 "Hg10 mi
7:53 PM81 °FPartly sunny.5 mph74%30.08 "Hg10 mi
6:53 PM81 °FBroken clouds.5 mph74%30.08 "Hg10 mi
5:53 PM82 °FCloudy.6 mph70%30.09 "Hg10 mi
4:53 PM80 °FBroken clouds.No wind69%30.09 "Hg10 mi
3:53 PM79 °FBroken clouds.6 mph82%30.10 "Hg10 mi
2:53 PM84 °FThunderstorms. Broken clouds.14 mph74%30.10 "Hg10 mi
1:53 PM87 °FBroken clouds.9 mph61%30.11 "Hg10 mi
1:02 PM86 °FThunderstorms. Broken clouds.9 mph65%30.11 "Hg10 mi
12:53 PM86 °FThunderstorms. Broken clouds.No wind70%30.11 "Hg10 mi
11:53 AM78 °FThunderstorms. Partly sunny.12 mph79%30.14 "Hg7 mi
11:00 AM85 °FThunderstorms. Broken clouds.9 mph70%30.13 "Hg10 mi
9:53 AM85 °FBroken clouds.8 mph72%30.12 "Hg10 mi
8:53 AM83 °FScattered clouds.7 mph70%30.12 "Hg10 mi
Weather by CustomWeather, © 2014

See weather overviewHow to use our weather pages